Weather History for Gadsden, AL

Change the Weather History Date:

Sunday, February 17, 2013

  Actual Average Record
Temperature  
Mean Temperature 34 °F -  
Max Temperature 48 °F 55 °F 72 °F (1948)
Min Temperature 19 °F 34 °F 19 °F (1943)
Degree Days  
Heating Degree Days 32    
Moisture  
Dew Point 17 °F    
Average Humidity 56    
Maximum Humidity 86    
Minimum Humidity 25    
Precipitation  
Precipitation 0.00 in - - ()
Sea Level Pressure  
Sea Level Pressure 30.26 in    
Wind  
Wind Speed 2 mph (WNW)    
Max Wind Speed 13 mph    
Max Gust Speed 16 mph    
Visibility 10 miles    
Events      
Averages and records for this station are not official NWS values.
T = Trace of Precipitation, MM = Missing Value Source: NWS Daily Summary

Daily Weather History Graph

Daily Weather History Graph

Search for Another Location

Airport:

Trip Planner

Search our weather history database for the weather conditions in past years. The results will help you decide how hot, cold, wet, or windy it might be!

Date:

Astronomy

Feb. 17, 2013 Rise Set
Actual Time 6:26 AM CST 5:30 PM CST
Civil Twilight 6:01 AM CST 5:55 PM CST
Nautical Twilight 5:31 AM CST 6:25 PM CST
Astronomical Twilight 5:02 AM CST 6:54 PM CST
Moon 10:40 AM CST (2/17) 12:04 AM CST (2/17)
Length of Visible Light 11h 54m
Length of Day
11h 03m
Waxing Crescent, 49% of the Moon is Illuminated
Feb 17
Waxing Crescent
Feb 17
First Quarter
Feb 25
Full
Mar 4
Last Quarter
Mar 11
New

Hourly Weather History & Observations

Time (CST) Temp. Windchill Dew Point Humidity Pressure Visibility Wind Dir Wind Speed Gust Speed Precip Events Conditions
12:15 AM 24.8 °F - 17.6 °F 74% 30.22 in 10.0 mi Calm Calm - N/A   Clear
12:35 AM 24.8 °F 19.1 °F 15.8 °F 69% 30.23 in 10.0 mi WNW 4.6 mph - N/A   Clear
12:55 AM 26.6 °F 21.2 °F 12.2 °F 55% 30.23 in 10.0 mi WNW 4.6 mph - N/A   Clear
1:15 AM 28.4 °F 24.6 °F 12.2 °F 51% 30.23 in 10.0 mi NW 3.5 mph - N/A   Clear
1:35 AM 23.0 °F - 12.2 °F 63% 30.23 in 10.0 mi Calm Calm - N/A   Clear
1:55 AM 23.0 °F - 15.8 °F 74% 30.24 in 10.0 mi Calm Calm - N/A   Clear
2:15 AM 21.2 °F - 15.8 °F 80% 30.23 in 10.0 mi Calm Calm - N/A   Clear
2:35 AM 23.0 °F - 15.8 °F 74% 30.23 in 10.0 mi Calm Calm - N/A   Clear
2:55 AM 21.2 °F - 15.8 °F 80% 30.22 in 10.0 mi Calm Calm - N/A   Clear
3:15 AM 19.4 °F - 15.8 °F 86% 30.22 in 10.0 mi Calm Calm - N/A   Clear
3:35 AM 21.2 °F - 17.6 °F 86% 30.22 in 10.0 mi Calm Calm - N/A   Clear
3:55 AM 19.4 °F - 15.8 °F 86% 30.23 in 10.0 mi Calm Calm - N/A   Clear
4:15 AM 19.4 °F - 15.8 °F 86% 30.24 in 10.0 mi Calm Calm - N/A   Clear
4:35 AM 19.4 °F - 15.8 °F 86% 30.25 in 10.0 mi Calm Calm - N/A   Clear
4:55 AM 19.4 °F - 15.8 °F 86% 30.26 in 10.0 mi Calm Calm - N/A   Clear
5:15 AM 19.4 °F - 15.8 °F 86% 30.26 in 10.0 mi Calm Calm - N/A   Clear
5:35 AM 19.4 °F - 15.8 °F 86% 30.27 in 10.0 mi Calm Calm - N/A   Clear
5:55 AM 19.4 °F - 14.0 °F 80% 30.27 in 10.0 mi Calm Calm - N/A   Clear
6:15 AM 19.4 °F - 15.8 °F 86% 30.28 in 10.0 mi Calm Calm - N/A   Clear
6:35 AM 19.4 °F - 15.8 °F 86% 30.29 in 10.0 mi Calm Calm - N/A   Clear
6:55 AM 19.4 °F - 15.8 °F 86% 30.29 in 10.0 mi Calm Calm - N/A   Clear
7:15 AM 23.0 °F - 17.6 °F 80% 30.29 in 10.0 mi Calm Calm - N/A   Clear
7:35 AM 24.8 °F - 17.6 °F 74% 30.30 in 10.0 mi Calm Calm - N/A   Clear
8:15 AM 30.2 °F - 17.6 °F 60% 30.31 in 10.0 mi Calm Calm - N/A   Clear
8:35 AM 30.2 °F 26.7 °F 17.6 °F 60% 30.32 in 10.0 mi West 3.5 mph - N/A   Clear
8:55 AM 33.8 °F 30.8 °F 17.6 °F 52% 30.32 in 10.0 mi West 3.5 mph - N/A   Clear
9:15 AM 35.6 °F 32.8 °F 15.8 °F 44% 30.32 in 10.0 mi West 3.5 mph - N/A   Clear
9:35 AM 37.4 °F 33.8 °F 15.8 °F 41% 30.33 in 10.0 mi WSW 4.6 mph - N/A   Clear
9:55 AM 37.4 °F - 12.2 °F 36% 30.33 in 10.0 mi Calm Calm - N/A   Clear
10:15 AM 39.2 °F 35.0 °F 14.0 °F 36% 30.33 in 10.0 mi WSW 5.8 mph - N/A   Clear
10:35 AM 39.2 °F - 12.2 °F 33% 30.33 in 10.0 mi Calm Calm - N/A   Clear
10:55 AM 42.8 °F - 12.2 °F 29% 30.32 in 10.0 mi Calm Calm - N/A   Clear
11:15 AM 44.6 °F 38.4 °F 12.2 °F 27% 30.31 in 10.0 mi North 12.7 mph 16.1 mph N/A   Clear
11:35 AM 44.6 °F 42.2 °F 12.2 °F 27% 30.30 in 10.0 mi NNE 4.6 mph - N/A   Clear
11:55 AM 44.6 °F - 12.2 °F 27% 30.29 in 10.0 mi Calm Calm - N/A   Clear
12:15 PM 44.6 °F 39.2 °F 14.0 °F 29% 30.28 in 10.0 mi West 10.4 mph - N/A   Clear
12:35 PM 44.6 °F 39.7 °F 14.0 °F 29% 30.27 in 10.0 mi North 9.2 mph - N/A   Clear
12:55 PM 46.4 °F 42.4 °F 12.2 °F 25% 30.26 in 10.0 mi NNW 8.1 mph - N/A   Clear
1:15 PM 46.4 °F 44.3 °F 15.8 °F 29% 30.25 in 10.0 mi North 4.6 mph - N/A   Scattered Clouds
1:35 PM 46.4 °F 41.5 °F 14.0 °F 27% 30.24 in 10.0 mi WNW 10.4 mph - N/A   Mostly Cloudy
1:55 PM 48.2 °F - 15.8 °F 27% 30.24 in 10.0 mi NW 6.9 mph - N/A   Partly Cloudy
2:15 PM 48.2 °F - 15.8 °F 27% 30.24 in 10.0 mi West 9.2 mph 16.1 mph N/A   Clear
2:35 PM 48.2 °F - 15.8 °F 27% 30.23 in 10.0 mi NNW 6.9 mph - N/A   Clear
2:55 PM 48.2 °F - 15.8 °F 27% 30.23 in 10.0 mi NW 10.4 mph 16.1 mph N/A   Clear
3:15 PM 48.2 °F - 15.8 °F 27% 30.23 in 10.0 mi NW 5.8 mph 16.1 mph N/A   Clear
3:35 PM 48.2 °F - 15.8 °F 27% 30.23 in 10.0 mi Calm Calm - N/A   Clear
3:55 PM 48.2 °F - 15.8 °F 27% 30.23 in 10.0 mi SW 4.6 mph - N/A   Clear
4:15 PM 48.2 °F - 15.8 °F 27% 30.23 in 10.0 mi West 4.6 mph - N/A   Clear
4:35 PM 46.4 °F 45.2 °F 15.8 °F 29% 30.23 in 10.0 mi NNW 3.5 mph - N/A   Scattered Clouds
4:55 PM 48.2 °F - 15.8 °F 27% 30.23 in 10.0 mi Calm Calm - N/A   Scattered Clouds
5:15 PM 44.6 °F - 17.6 °F 34% 30.23 in 10.0 mi Calm Calm - N/A   Clear
5:35 PM 42.8 °F - 17.6 °F 36% 30.22 in 10.0 mi Calm Calm - N/A   Clear
5:55 PM 41.0 °F - 19.4 °F 42% 30.23 in 10.0 mi Calm Calm - N/A   Clear
6:15 PM 39.2 °F - 19.4 °F 45% 30.23 in 10.0 mi Calm Calm - N/A   Clear
6:35 PM 35.6 °F - 21.2 °F 56% 30.23 in 10.0 mi Calm Calm - N/A   Clear
6:55 PM 37.4 °F - 21.2 °F 52% 30.24 in 10.0 mi Calm Calm - N/A   Clear
7:15 PM 33.8 °F - 23.0 °F 65% 30.24 in 10.0 mi Calm Calm - N/A   Clear
7:35 PM 33.8 °F - 21.2 °F 60% 30.25 in 10.0 mi Calm Calm - N/A   Clear
7:55 PM 33.8 °F - 21.2 °F 60% 30.24 in 10.0 mi Calm Calm - N/A   Clear
8:15 PM 32.0 °F - 23.0 °F 69% 30.25 in 10.0 mi Calm Calm - N/A   Clear
8:35 PM 30.2 °F - 21.2 °F 69% 30.25 in 10.0 mi Calm Calm - N/A   Clear
8:55 PM 30.2 °F - 21.2 °F 69% 30.26 in 10.0 mi Calm Calm - N/A   Clear
9:15 PM 30.2 °F - 23.0 °F 75% 30.26 in 10.0 mi Calm Calm - N/A   Clear
9:35 PM 30.2 °F - 21.2 °F 69% 30.27 in 10.0 mi Calm Calm - N/A   Clear
9:55 PM 28.4 °F - 21.2 °F 74% 30.27 in 10.0 mi Calm Calm - N/A   Clear
10:15 PM 30.2 °F - 21.2 °F 69% 30.27 in 10.0 mi Calm Calm - N/A   Clear
10:35 PM 28.4 °F - 21.2 °F 74% 30.27 in 10.0 mi Calm Calm - N/A   Clear
10:55 PM 28.4 °F - 21.2 °F 74% 30.27 in 10.0 mi Calm Calm - N/A   Clear
11:15 PM 28.4 °F - 21.2 °F 74% 30.27 in 10.0 mi Calm Calm - N/A   Clear
11:35 PM 28.4 °F - 21.2 °F 74% 30.26 in 10.0 mi Calm Calm - N/A   Clear
11:55 PM 28.4 °F - 21.2 °F 74% 30.26 in 10.0 mi Calm Calm - N/A   Clear